{"data":{"norad_id":65778,"epoch":"2026-05-25T04:03:14.010624Z","epoch_age_seconds":54267,"freshness":"FRESH","line1":"1 65778U 25217S   26145.16891216  .00001563  00000+0  23402-3 0  9990","line2":"2 65778  51.9027  57.4095 0001042  95.8272 264.2809 14.79939048 36306","mean_motion":14.79939048,"eccentricity":0.0001042,"inclination_deg":51.9027,"raan_deg":57.4095,"arg_perigee_deg":95.8272,"mean_anomaly_deg":264.2809,"bstar":0.00023402,"rev_number":3630,"period_min":97.301304533185,"perigee_km":628.78633970413,"apogee_km":630.24673470129,"semimajor_km":7007.6535372027,"source":"CELESTRAK","updated_at":"2026-05-25T13:38:05.687973Z"}}